Change the Weather History Date:

Monday, March 18, 2013

  Actual Average (KDEN) Record (KDEN)
Temperature  
Mean Temperature 39 °F 41 °F  
Max Temperature 50 °F 55 °F 82 °F (1907)
Min Temperature 28 °F 27 °F -2 °F (1965)
Degree Days  
Heating Degree Days 26 24  
Month to date heating degree days 473  
Since 1 July heating degree days 4912  
Cooling Degree Days 0 0  
Month to date cooling degree days 0  
Year to date cooling degree days 0  
Moisture  
Dew Point 14 °F    
Average Humidity 45    
Maximum Humidity 64    
Minimum Humidity 20    
Precipitation  
Precipitation 0.00 in 0.02 in 1.53 in (2003)
Month to date precipitation 0.44  
Year to date precipitation 1.22  
Snow  
Snow 0.00 in - - ()
Month to date snowfall  
Since 1 July snowfall  
Snow Depth -    
Sea Level Pressure  
Sea Level Pressure 29.88 in    
Wind  
Wind Speed 8 mph (WNW)    
Max Wind Speed 32 mph    
Max Gust Speed 41 mph    
Visibility 10 miles    
Events      
T = Trace of Precipitation, MM = Missing Value Source: NWS Daily Summary

Daily Weather History Graph

Daily Weather History Graph

Search for Another Location

Airport or City:

Trip Planner

Search our weather history database for the weather conditions in past years. The results will help you decide how hot, cold, wet, or windy it might be!

Date:

Astronomy

Mar. 18, 2013 Rise Set
Actual Time 7:04 AM MDT 7:08 PM MDT
Civil Twilight 6:37 AM MDT 7:35 PM MDT
Nautical Twilight 6:06 AM MDT 8:06 PM MDT
Astronomical Twilight 5:34 AM MDT 8:38 PM MDT
Moon 11:06 AM MDT (3/18) 1:09 AM MDT (3/18)
Length of Visible Light 12h 57m
Length of Day
12h 04m
Waxing Crescent, 41% of the Moon is Illuminated
Mar 18
Waxing Crescent
Mar 19
First Quarter
Mar 27
Full
Apr 2
Last Quarter
Apr 10
New

Hourly Weather History & Observations

Time (MDT) Temp. Windchill Dew Point Humidity Pressure Visibility Wind Dir Wind Speed Gust Speed Precip Events Conditions
12:17 AM 32.0 °F 25.6 °F 17.6 °F 55% 29.84 in 10.0 mi NW 6.9 mph - N/A   Clear
12:37 AM 32.0 °F 24.8 °F 14.0 °F 48% 29.84 in 10.0 mi NW 8.1 mph - N/A   Clear
12:57 AM 32.0 °F 25.6 °F 17.6 °F 55% 29.85 in 10.0 mi NW 6.9 mph - N/A   Clear
1:17 AM 32.0 °F 26.4 °F 15.8 °F 51% 29.86 in 10.0 mi West 5.8 mph - N/A   Clear
1:37 AM 32.0 °F 26.4 °F 17.6 °F 55% 29.87 in 10.0 mi NNW 5.8 mph - N/A   Clear
1:57 AM 32.0 °F 24.8 °F 17.6 °F 55% 29.87 in 10.0 mi NNW 8.1 mph - N/A   Clear
2:17 AM 32.0 °F 24.8 °F 14.0 °F 48% 29.87 in 10.0 mi NW 8.1 mph - N/A   Clear
2:37 AM 30.2 °F 24.3 °F 14.0 °F 51% 29.88 in 10.0 mi NNW 5.8 mph - N/A   Clear
2:57 AM 30.2 °F 23.4 °F 14.0 °F 51% 29.89 in 10.0 mi NNW 6.9 mph - N/A   Clear
3:17 AM 30.2 °F 24.3 °F 10.4 °F 44% 29.89 in 10.0 mi NNW 5.8 mph - N/A   Clear
3:37 AM 30.2 °F - 8.6 °F 40% 29.88 in 10.0 mi Calm Calm - N/A   Clear
3:57 AM 28.4 °F - 12.2 °F 51% 29.89 in 10.0 mi Calm Calm - N/A   Clear
4:16 AM 30.2 °F - 6.8 °F 37% 29.87 in 10.0 mi Calm Calm - N/A   Clear
4:37 AM 28.4 °F 22.2 °F 10.4 °F 47% 29.87 in 10.0 mi SE 5.8 mph - N/A   Clear
4:57 AM 28.4 °F - 12.2 °F 51% 29.87 in 10.0 mi Calm Calm - N/A   Clear
5:17 AM 30.2 °F 25.4 °F 8.6 °F 40% 29.87 in 10.0 mi North 4.6 mph - N/A   Clear
5:37 AM 30.2 °F 22.6 °F 12.2 °F 47% 29.87 in 10.0 mi NNW 8.1 mph - N/A   Clear
5:57 AM 28.4 °F 22.2 °F 14.0 °F 55% 29.87 in 10.0 mi NNW 5.8 mph - N/A   Clear
6:17 AM 30.2 °F 24.3 °F 12.2 °F 47% 29.87 in 10.0 mi WNW 5.8 mph - N/A   Clear
6:37 AM 32.0 °F 23.0 °F 12.2 °F 44% 29.88 in 10.0 mi WNW 11.5 mph - N/A   Clear
6:53 AM 32.0 °F 21.6 °F 12.2 °F 44% 29.89 in 10.0 mi WNW 15.0 mph - N/A   Clear
7:50 AM 35.6 °F 24.2 °F 10.4 °F 35% 29.90 in 50.0 mi West 21.9 mph 27.6 mph N/A   Scattered Clouds
9:55 AM 41.0 °F 31.6 °F 12.2 °F 31% 29.91 in 50.0 mi West 20.7 mph 33.4 mph N/A   Scattered Clouds
11:47 AM 46.4 °F 37.7 °F 12.2 °F 25% 29.91 in 50.0 mi WNW 26.5 mph 34.5 mph N/A   Mostly Cloudy
1:50 PM 50.0 °F - 10.4 °F 20% 29.87 in 50.0 mi West 32.2 mph 41.4 mph N/A   Mostly Cloudy
2:50 PM 50.0 °F - 10.4 °F 20% 29.85 in 50.0 mi West 24.2 mph 36.8 mph N/A   Mostly Cloudy
3:48 PM 50.0 °F - 10.4 °F 20% 29.85 in 50.0 mi West 26.5 mph 36.8 mph N/A   Scattered Clouds
4:48 PM 50.0 °F - 10.4 °F 20% 29.86 in 50.0 mi WNW 23.0 mph - N/A   Scattered Clouds
5:52 PM 48.2 °F - 12.2 °F 24% 29.87 in 50.0 mi West 18.4 mph 32.2 mph N/A   Scattered Clouds
6:50 PM 46.4 °F 41.9 °F 15.8 °F 29% 29.87 in 50.0 mi WNW 9.2 mph - N/A   Scattered Clouds
7:48 PM 41.0 °F 38.0 °F 15.8 °F 36% 29.88 in 20.0 mi WNW 4.6 mph - N/A   Mostly Cloudy
8:57 PM 33.8 °F 29.6 °F 21.2 °F 60% 29.90 in 10.0 mi SE 4.6 mph - N/A   Clear
9:17 PM 33.8 °F 30.8 °F 21.2 °F 60% 29.90 in 10.0 mi ESE 3.5 mph - N/A   Clear
9:57 PM 32.0 °F 27.5 °F 21.2 °F 64% 29.91 in 10.0 mi South 4.6 mph - N/A   Clear
10:16 PM 32.0 °F - 21.2 °F 64% 29.92 in 10.0 mi Calm Calm - N/A   Scattered Clouds
10:37 PM 33.8 °F 28.6 °F 21.2 °F 60% 29.93 in 10.0 mi SW 5.8 mph - N/A   Mostly Cloudy
10:57 PM 39.2 °F 35.0 °F 17.6 °F 42% 29.93 in 10.0 mi SW 5.8 mph - N/A   Mostly Cloudy
11:16 PM 39.2 °F 35.9 °F 17.6 °F 42% 29.93 in 10.0 mi SW 4.6 mph - N/A   Scattered Clouds
11:36 PM 32.0 °F 28.7 °F 21.2 °F 64% 29.93 in 10.0 mi North 3.5 mph - N/A   Clear
11:57 PM 35.6 °F - 19.4 °F 52% 29.93 in 10.0 mi Calm Calm - N/A   Scattered Clouds